Black River Falls, WI

8:31 PM CST on February 25, 2018 (GMT -0600)
Black River Falls Area

Weather History for KBCK - September, 2012

Change the Weather History Date:

Thursday, September 27, 2012

  Actual Average (KCMY) Record (KCMY)
Temperature  
Mean Temperature 46 °F -  
Max Temperature 66 °F 68 °F 83 °F (1979)
Min Temperature 26 °F 42 °F 24 °F (1991)
Degree Days  
Heating Degree Days 19    
Moisture  
Dew Point 32 °F    
Average Humidity 68    
Maximum Humidity 100    
Minimum Humidity 28    
Precipitation  
Precipitation 0.00 in - - ()
Sea Level Pressure  
Sea Level Pressure 30.23 in    
Wind  
Wind Speed 1 mph (West)    
Max Wind Speed 7 mph    
Max Gust Speed -    
Visibility 10 miles    
Events      
Averages and records for this station are not official NWS values.
T = Trace of Precipitation, MM = Missing Value Source: NWS Daily Summary

Daily Weather History Graph

Daily Weather History Graph

Search for Another Location

Airport or City:

Trip Planner

Search our weather history database for the weather conditions in past years. The results will help you decide how hot, cold, wet, or windy it might be!

Date:

Astronomy

Sep. 27, 2012 Rise Set
Actual Time 6:57 AM CDT 6:50 PM CDT
Civil Twilight 6:28 AM CDT 7:19 PM CDT
Nautical Twilight 5:54 AM CDT 7:53 PM CDT
Astronomical Twilight 5:20 AM CDT 8:27 PM CDT
Moon 5:25 PM CDT (9/27) 4:22 AM CDT (9/27)
Length of Visible Light 12h 51m
Length of Day
11h 53m
Waxing Gibbous, 94% of the Moon is Illuminated
Sep 27
Waxing Gibbous
Sep 29
Full
Oct 8
Last Quarter
Oct 15
New
Oct 21
First Quarter

Hourly Weather History & Observations

Time (CDT) Temp. Dew Point Humidity Pressure Visibility Wind Dir Wind Speed Gust Speed Precip Events Conditions
12:15 AM 30.2 °F 30.2 °F 100% 30.21 in 10.0 mi Calm Calm - N/A   Clear
12:35 AM 30.2 °F 30.2 °F 100% 30.21 in 10.0 mi Calm Calm - N/A   Clear
12:55 AM 30.2 °F 30.2 °F 100% 30.21 in 10.0 mi Calm Calm - N/A   Clear
1:35 AM 28.4 °F 28.4 °F 100% 30.22 in 10.0 mi Calm Calm - N/A   Clear
2:15 AM 30.2 °F 30.2 °F 100% 30.22 in 10.0 mi Calm Calm - N/A   Clear
2:35 AM 28.4 °F 28.4 °F 100% 30.23 in 10.0 mi Calm Calm - N/A   Clear
2:55 AM 28.4 °F 28.4 °F 100% 30.22 in 10.0 mi Calm Calm - N/A   Clear
3:15 AM 30.2 °F 30.2 °F 100% 30.22 in 10.0 mi Calm Calm - N/A   Clear
3:35 AM 28.4 °F 28.4 °F 100% 30.23 in 10.0 mi Calm Calm - N/A   Clear
4:15 AM 28.4 °F 28.4 °F 100% 30.24 in 10.0 mi Calm Calm - N/A   Clear
4:35 AM 28.4 °F 28.4 °F 100% 30.24 in 10.0 mi Calm Calm - N/A   Clear
4:55 AM 28.4 °F 28.4 °F 100% 30.25 in 10.0 mi Calm Calm - N/A   Clear
5:15 AM 28.4 °F 28.4 °F 100% 30.26 in 10.0 mi Calm Calm - N/A   Clear
5:55 AM 26.6 °F 26.6 °F 100% 30.27 in 10.0 mi Calm Calm - N/A   Clear
6:15 AM 26.6 °F 26.6 °F 100% 30.26 in 10.0 mi Calm Calm - N/A   Clear
7:15 AM 26.6 °F 26.6 °F 100% 30.29 in 10.0 mi Calm Calm - N/A   Clear
7:35 AM 26.6 °F 26.6 °F 100% 30.29 in 10.0 mi Calm Calm - N/A   Clear
8:15 AM 32.0 °F 32.0 °F 100% 30.29 in 10.0 mi Calm Calm - N/A   Clear
8:35 AM 35.6 °F 35.6 °F 100% 30.29 in 10.0 mi Calm Calm - N/A   Clear
8:55 AM 39.2 °F 35.6 °F 87% 30.30 in 10.0 mi Calm Calm - N/A   Clear
9:15 AM 42.8 °F 35.6 °F 76% 30.30 in 10.0 mi Calm Calm - N/A   Clear
9:35 AM 44.6 °F 35.6 °F 71% 30.31 in 10.0 mi Calm Calm - N/A   Clear
9:55 AM 46.4 °F 35.6 °F 66% 30.31 in 10.0 mi Calm Calm - N/A   Clear
10:15 AM 50.0 °F 37.4 °F 62% 30.30 in 10.0 mi Calm Calm - N/A   Clear
10:35 AM 51.8 °F 37.4 °F 58% 30.30 in 10.0 mi Calm Calm - N/A   Clear
10:55 AM 55.4 °F 35.6 °F 47% 30.29 in 10.0 mi Calm Calm - N/A   Clear
11:15 AM 57.2 °F 35.6 °F 44% 30.29 in 10.0 mi South 4.6 mph - N/A   Clear
11:35 AM 59.0 °F 33.8 °F 39% 30.28 in 10.0 mi SE 3.5 mph - N/A   Clear
11:55 AM 59.0 °F 33.8 °F 39% 30.27 in 10.0 mi East 4.6 mph - N/A   Clear
12:15 PM 60.8 °F 33.8 °F 36% 30.26 in 10.0 mi East 3.5 mph - N/A   Clear
12:35 PM 60.8 °F 33.8 °F 36% 30.25 in 10.0 mi NNE 4.6 mph - N/A   Clear
12:55 PM 62.6 °F 33.8 °F 34% 30.25 in 10.0 mi Calm Calm - N/A   Clear
1:15 PM 62.6 °F 32.0 °F 32% 30.24 in 10.0 mi Calm Calm - N/A   Clear
1:35 PM 62.6 °F 32.0 °F 32% 30.23 in 10.0 mi WSW 5.8 mph - N/A   Clear
1:55 PM 62.6 °F 32.0 °F 32% 30.21 in 10.0 mi West 5.8 mph - N/A   Clear
2:15 PM 64.4 °F 32.0 °F 30% 30.21 in 10.0 mi NNW 3.5 mph - N/A   Clear
2:35 PM 64.4 °F 32.0 °F 30% 30.21 in 10.0 mi NNW 3.5 mph - N/A   Clear
2:55 PM 64.4 °F 32.0 °F 30% 30.21 in 10.0 mi West 5.8 mph - N/A   Clear
3:15 PM 66.2 °F 32.0 °F 28% 30.21 in 10.0 mi WSW 5.8 mph - N/A   Clear
3:35 PM 64.4 °F 32.0 °F 30% 30.21 in 10.0 mi WNW 4.6 mph - N/A   Clear
3:55 PM 66.2 °F 32.0 °F 28% 30.20 in 10.0 mi West 6.9 mph - N/A   Clear
4:15 PM 64.4 °F 32.0 °F 30% 30.19 in 10.0 mi Calm Calm - N/A   Clear
4:35 PM 66.2 °F 32.0 °F 28% 30.19 in 10.0 mi Calm Calm - N/A   Clear
5:15 PM 66.2 °F 32.0 °F 28% 30.19 in 10.0 mi West 3.5 mph - N/A   Clear
5:35 PM 64.4 °F 32.0 °F 30% 30.19 in 10.0 mi Calm Calm - N/A   Clear
5:55 PM 64.4 °F 32.0 °F 30% 30.18 in 10.0 mi WSW 3.5 mph - N/A   Clear
6:15 PM 64.4 °F 32.0 °F 30% 30.18 in 10.0 mi Calm Calm - N/A   Clear
6:35 PM 62.6 °F 32.0 °F 32% 30.18 in 10.0 mi Calm Calm - N/A   Clear
6:55 PM 57.2 °F 33.8 °F 41% 30.18 in 10.0 mi Calm Calm - N/A   Clear
7:15 PM 51.8 °F 33.8 °F 50% 30.18 in 10.0 mi Calm Calm - N/A   Clear
7:35 PM 46.4 °F 33.8 °F 62% 30.18 in 10.0 mi Calm Calm - N/A   Clear
8:15 PM 42.8 °F 33.8 °F 70% 30.19 in 10.0 mi Calm Calm - N/A   Clear
8:35 PM 41.0 °F 33.8 °F 76% 30.19 in 10.0 mi Calm Calm - N/A   Clear
9:15 PM 37.4 °F 33.8 °F 87% 30.19 in 10.0 mi Calm Calm - N/A   Clear
9:35 PM 37.4 °F 32.0 °F 81% 30.19 in 10.0 mi Calm Calm - N/A   Clear
9:55 PM 35.6 °F 32.0 °F 87% 30.19 in 10.0 mi Calm Calm - N/A   Clear
10:15 PM 35.6 °F 32.0 °F 87% 30.19 in 10.0 mi Calm Calm - N/A   Clear
10:35 PM 33.8 °F 33.8 °F 100% 30.19 in 10.0 mi Calm Calm - N/A   Clear
10:55 PM 33.8 °F 33.8 °F 100% 30.19 in 10.0 mi Calm Calm - N/A   Clear
11:15 PM 33.8 °F 32.0 °F 93% 30.19 in 10.0 mi Calm Calm - N/A   Clear
11:35 PM 32.0 °F 32.0 °F 100% 30.19 in 10.0 mi Calm Calm - N/A   Clear
11:55 PM 32.0 °F 32.0 °F 100% 30.20 in 10.0 mi Calm Calm - N/A   Clear